This is the latest recevied weather packets stored in our database for station/object M0TJX-1. If no packets are shown the sender has not sent any weather packets the latest 10 day(s).
| Time | Temp. | Humidity | Pressure | Rain* | Wind** | Luminosity | Snow |
|---|---|---|---|---|---|---|---|
| 1777669101 | 11.67° C | 81% | 1019.8 hPa | 0 mm | - | - | - |
| 1777668201 | 12.22° C | 80% | 1019.8 hPa | 0 mm | - | - | - |
| 1777667301 | 12.78° C | 79% | 1019.8 hPa | 0 mm | - | - | - |
| 1777666401 | 12.78° C | 79% | 1019.5 hPa | 0 mm | - | - | - |
| 1777665501 | 13.33° C | 78% | 1019.6 hPa | 0 mm | - | - | - |
| 1777664601 | 13.33° C | 77% | 1019.6 hPa | 0 mm | - | - | - |
| 1777663701 | 13.89° C | 77% | 1019.5 hPa | 0 mm | - | - | - |
| 1777662801 | 14.44° C | 77% | 1019.6 hPa | 0 mm | - | - | - |
| 1777661901 | 14.44° C | 76% | 1019.5 hPa | 0 mm | - | - | - |
| 1777661001 | 15° C | 78% | 1019.5 hPa | 0 mm | - | - | - |
| 1777660101 | 15° C | 78% | 1019.2 hPa | 0 mm | - | - | - |
| 1777659202 | 15.56° C | 78% | 1019 hPa | 0 mm | - | - | - |
| 1777658302 | 15.56° C | 77% | 1019.1 hPa | 0 mm | - | - | - |
| 1777657401 | 16.11° C | 76% | 1019.1 hPa | 0 mm | - | - | - |
| 1777656502 | 16.11° C | 76% | 1019.3 hPa | 0 mm | - | - | - |
| 1777655602 | 16.67° C | 77% | 1019.4 hPa | 0 mm | - | - | - |
| 1777654702 | 16.11° C | 78% | 1019.5 hPa | 0 mm | - | - | - |
| 1777653802 | 16.11° C | 80% | 1019.5 hPa | 0 mm | - | - | - |
| 1777652902 | 16.11° C | 80% | 1019.6 hPa | 0 mm | - | - | - |
| 1777652002 | 16.11° C | 79% | 1019.6 hPa | 0 mm | - | - | - |
| 1777651102 | 16.11° C | 79% | 1019.8 hPa | 0 mm | - | - | - |
| 1777650202 | 16.11° C | 79% | 1019.8 hPa | 0 mm | - | - | - |
| 1777649302 | 16.11° C | 78% | 1019.9 hPa | 0 mm | - | - | - |
| 1777648402 | 16.11° C | 80% | 1019.9 hPa | 0 mm | - | - | - |
| 1777647502 | 16.67° C | 81% | 1019.9 hPa | 0 mm | - | - | - |
* Rain latest hour (hover to see other rain measurements)
** Current wind speed in m/s (hover to see current wind gust speed)